Theta_e
310 309 309 309 310 309 312 312 312 311 311 312 311 310 310 310 305 303 303 302 301 299 298 297 297 297 298 299 300 302 306 309 313 314 315 315 313 313 317 318 319 320 322 324
310 309 309 309 309 310 310 312 312 311 311 310 311 311 310 309 309 305 304 302 301 299 297 297 296 296 296 296 297 298 299 302 306 309 309 308 307 306 306 308 310 312 315 316
311 313 311 311 312 312 312 312 312 313 312 310 311 311 311 307 305 304 303 301 300 298 297 295 295 295 295 296 296 296 296 297 299 302 304 304 304 306 308 304 303 301 305 308
310 310 312 312 314 313 315 312 312 313 312 313 311 313 311 310 306 304 302 300 298 297 296 295 295 293 293 294 295 295 296 296 296 297 298 298 296 295 295 296 298 299 300 301
314 313 312 313 312 311 314 310 311 311 310 311 311 312 310 308 308 305 301 299 298 296 295 294 294 294 293 293 293 294 293 293 294 295 295 295 294 294 294 295 296 296 296 297
310 309 310 310 310 310 309 310 309 309 309 312 310 311 312 309 309 304 301 299 298 296 295 294 294 293 292 291 291 291 290 290 291 291 292 290 288 288 288 288 288 288 289 291
312 311 310 309 310 309 308 310 316 316 312 316 312 312 312 308 305 305 301 299 297 295 294 293 293 292 291 290 289 289 288 288 287 287 286 286 286 286 285 285 285 285 285 285
317 320 310 308 310 311 308 311 317 322 315 314 311 315 313 302 301 300 300 298 297 297 295 293 293 292 291 290 289 289 288 288 287 287 286 286 285 285 285 284 284 284 284 284
315 317 310 309 310 312 313 314 313 315 303 310 314 312 305 302 300 299 298 297 296 295 295 294 293 293 292 291 289 288 287 287 287 287 286 286 285 285 285 284 284 284 284 284
316 317 313 310 311 309 311 311 314 312 314 311 313 312 312 305 302 299 298 297 295 294 293 293 292 292 292 291 290 288 287 286 286 286 286 285 285 285 285 285 284 284 284 284
313 315 314 311 312 313 310 312 314 313 310 310 308 309 307 307 303 300 297 296 295 293 292 291 293 292 291 290 289 288 287 287 286 286 285 285 285 285 285 284 284 283 283 283
312 312 310 313 310 309 311 311 311 313 312 310 312 312 306 305 302 299 297 296 294 294 292 291 290 290 290 289 288 288 287 287 286 286 285 285 285 285 284 283 283 282 282 282
312 311 306 310 306 310 311 310 309 309 308 307 312 311 302 300 299 298 297 295 294 293 289 290 288 288 288 288 287 287 287 286 286 286 286 285 285 284 283 282 282 281 281 281
313 311 311 314 306 308 308 307 306 307 309 306 308 308 304 301 301 299 297 296 294 292 289 287 286 287 287 287 288 287 287 287 287 287 286 286 285 284 284 283 282 281 281 280
311 310 310 309 307 307 307 307 305 306 305 306 305 301 301 301 299 296 295 294 295 291 288 287 286 286 288 288 288 288 288 287 288 288 287 286 285 284 283 282 280 280 280 279
305 305 302 298 304 303 303 302 302 303 303 303 303 304 302 296 294 294 293 293 293 292 290 287 286 287 287 288 288 288 288 288 288 287 286 284 284 283 281 279 279 278 277 276
303 301 297 299 299 297 295 296 298 297 298 297 296 296 290 295 294 292 290 290 290 288 288 287 286 287 288 289 289 288 288 287 286 285 284 283 281 279 278 277 276 275 275 274
300 295 295 294 288 291 296 293 294 295 294 292 293 288 289 292 291 289 288 288 287 287 287 286 287 287 288 288 287 286 285 284 283 282 280 279 277 276 275 274 274 273 272 270
298 298 295 293 287 291 294 293 294 294 293 290 291 288 291 289 287 287 287 286 287 286 288 289 289 288 287 286 285 285 283 282 282 280 277 275 274 273 272 271 270 269 268 267
295 297 295 281 287 289 291 292 290 290 290 285 284 285 286 287 285 286 286 287 287 288 288 288 288 286 285 283 282 281 280 279 277 275 274 273 272 271 269 268 268 267 266 266
286 289 297 293 285 286 288 288 290 289 290 283 284 287 286 286 287 287 286 286 288 288 288 288 286 285 283 281 280 278 276 274 273 271 271 271 270 269 268 268 266 265 265 264
290 289 289 287 291 291 289 288 290 289 288 288 288 288 288 288 287 287 286 286 286 286 286 286 283 281 279 278 276 274 273 272 270 270 270 269 268 268 267 266 265 265 264 263
288 289 285 288 289 290 288 289 289 288 288 290 288 287 287 287 287 286 286 285 285 286 285 283 281 279 276 275 274 273 271 270 269 268 268 268 267 267 266 264 264 263 263 262
287 287 288 287 288 289 289 289 288 288 289 288 288 287 287 287 287 286 285 284 284 285 282 281 278 275 274 273 271 270 269 268 268 267 267 266 265 265 264 264 264 263 262 262
287 287 285 287 289 288 287 287 287 287 287 287 286 286 287 286 286 284 284 283 284 282 280 278 276 274 272 271 269 269 268 267 267 266 265 265 264 264 264 263 263 263 263 264
288 290 289 288 290 290 289 288 288 288 287 286 286 285 284 284 285 284 283 284 283 279 276 274 273 272 270 269 269 268 267 266 265 264 264 264 263 263 263 262 262 264 264 266
Wind_Speed
1 4 7 12 12 4 3 4 6 5 7 4 9 7 10 10 6 8 7 7 6 7 7 16 23 26 27 28 28 27 25 23 18 13 14 18 19 19 16 14 11 7 3 7
4 6 14 3 4 7 5 5 8 5 7 4 6 7 11 5 4 4 11 8 7 5 5 12 21 28 31 30 29 29 27 24 22 18 15 15 14 19 20 17 16 13 10 6
8 7 5 6 4 6 4 6 4 8 4 4 3 6 8 3 7 11 9 7 7 6 5 6 16 24 29 32 32 31 29 27 23 18 14 14 13 15 15 17 16 17 12 10
6 7 5 5 5 5 5 8 8 5 3 4 1 5 5 4 5 5 6 6 6 6 6 8 13 20 26 26 26 29 30 30 27 23 24 25 24 22 19 18 16 17 16 15
6 2 3 6 8 7 8 3 3 1 3 1 4 2 6 5 3 5 5 6 5 5 6 6 14 19 21 23 23 25 28 28 28 29 28 27 27 24 23 22 20 18 16 17
6 2 4 6 1 2 3 4 7 5 2 2 8 7 2 3 3 6 6 7 7 7 6 9 15 17 18 19 21 24 27 27 26 27 28 29 28 28 29 30 30 29 28 27
2 5 4 4 4 2 3 5 2 4 2 6 3 2 6 4 2 10 15 9 7 7 7 6 10 13 16 18 18 23 25 27 26 27 27 27 27 28 28 28 27 28 28 28
6 4 8 6 8 9 7 8 6 7 4 5 1 6 3 3 6 11 11 9 7 6 6 7 9 11 12 13 15 18 19 21 18 20 22 22 23 24 25 25 24 24 24 23
5 6 2 0 0 4 4 4 2 5 2 2 5 3 3 5 6 8 8 8 7 6 6 7 10 11 11 11 12 13 12 14 15 15 15 17 17 17 18 18 21 22 22 22
4 3 2 1 2 4 2 4 3 2 2 4 4 5 5 8 8 7 8 7 7 6 7 7 12 12 10 10 10 10 10 11 11 11 12 14 16 17 17 19 19 20 21 22
5 5 2 4 5 9 2 3 2 2 5 5 2 6 3 7 11 13 9 9 9 10 10 9 15 16 14 13 12 11 9 9 8 8 11 12 13 16 17 18 19 20 22 23
4 4 4 7 1 2 1 5 6 5 6 4 3 9 1 5 7 9 10 11 10 10 8 9 15 17 16 15 12 11 8 6 6 6 6 9 11 15 18 19 20 21 22 24
7 2 1 5 4 2 4 4 2 2 3 5 4 7 2 1 5 7 10 9 9 9 8 8 13 17 17 16 14 11 8 5 2 2 3 6 10 16 21 22 23 24 27 29
6 5 7 12 5 3 3 4 3 3 2 3 7 5 6 7 6 6 7 8 9 9 9 7 9 16 18 16 14 12 10 7 3 2 6 10 14 20 25 28 29 30 32 35
4 6 5 3 4 4 4 9 6 8 8 8 17 11 15 5 7 8 8 6 5 7 9 10 8 14 17 16 15 14 13 10 6 6 8 11 14 19 25 27 29 31 34 38
2 1 2 3 4 6 6 11 5 11 13 10 15 19 14 7 3 3 6 4 4 6 7 7 9 15 19 21 19 16 15 12 9 8 9 12 17 23 26 27 30 34 38 37
6 6 3 5 3 4 8 8 16 14 10 8 11 12 2 5 7 5 5 3 4 4 5 8 8 17 23 24 24 19 13 10 8 9 10 15 19 22 23 27 33 36 38 39
4 5 3 3 2 2 7 1 3 7 8 5 3 4 6 4 2 5 4 5 6 6 7 7 14 20 23 21 17 14 11 9 7 8 11 15 17 19 25 29 31 33 34 33
4 5 3 4 5 6 9 6 7 7 7 6 6 3 5 3 3 4 4 6 5 6 10 13 14 15 16 16 15 13 10 9 10 11 12 12 17 22 24 27 30 30 31 32
4 1 6 3 5 9 7 2 5 5 6 6 6 6 7 6 3 5 6 5 8 12 14 15 14 12 17 15 13 10 7 7 8 9 12 17 19 21 24 26 28 30 30 30
3 1 14 10 4 7 7 5 2 5 7 4 6 6 8 5 8 5 7 6 13 16 14 13 16 18 17 14 10 6 6 6 6 10 14 15 18 21 23 26 27 30 32 28
7 8 5 3 3 9 8 5 8 6 2 5 6 6 11 12 7 8 8 7 13 13 10 16 19 18 14 11 8 6 5 7 10 12 13 16 17 18 21 23 28 30 30 29
2 7 5 9 7 3 8 7 11 5 6 6 7 8 12 10 8 9 8 8 12 16 18 19 21 18 14 10 7 5 6 9 10 11 13 16 17 17 19 22 26 29 26 24
4 4 3 4 5 6 9 11 5 8 8 8 8 10 9 11 10 10 8 8 10 16 21 20 17 14 12 9 7 6 7 9 10 12 14 16 17 19 20 21 24 24 24 22
6 6 6 3 5 3 8 9 9 10 10 9 8 10 13 11 10 11 8 7 15 17 17 17 16 13 11 9 7 6 8 9 10 12 14 16 17 18 21 21 21 23 25 24
7 10 4 6 15 11 8 8 8 10 11 12 12 10 10 12 12 8 8 15 14 17 17 15 12 11 10 8 7 7 7 9 9 11 14 16 18 19 20 20 23 23 23 24
Wind_Direction
13 104 210 207 204 173 187 194 223 252 252 190 244 242 260 262 117 144 144 118 96 77 52 52 58 61 59 60 59 55 56 55 65 80 83 76 73 69 71 63 58 52 6 272
58 216 230 192 173 221 256 256 259 280 270 171 274 276 267 299 274 180 143 121 109 85 38 40 54 57 55 58 58 57 57 56 60 66 74 87 89 79 78 68 57 49 44 17
173 218 169 179 212 206 218 212 227 238 312 280 322 300 269 62 67 76 73 102 104 107 83 33 47 54 59 56 55 56 57 57 60 69 89 97 90 81 69 50 45 41 44 44
230 261 214 166 217 163 260 218 209 223 137 231 102 275 286 180 118 95 112 99 101 100 69 54 52 52 58 57 62 65 62 61 62 66 68 70 71 65 57 55 53 49 45 43
239 216 170 224 230 160 234 163 181 135 155 12 297 288 246 123 170 167 140 118 111 90 78 60 66 68 63 64 61 65 66 64 63 66 69 71 70 67 62 58 54 51 44 35
228 282 168 202 106 177 124 68 33 42 74 290 222 192 242 178 230 145 141 136 126 112 91 79 77 74 67 65 65 66 67 65 66 66 64 64 63 61 59 55 51 50 48 44
236 213 203 172 148 72 115 92 324 331 342 232 183 186 251 295 306 179 150 138 134 133 125 106 82 76 71 66 67 67 67 64 62 64 64 65 65 61 55 52 48 44 39 35
189 282 183 191 199 181 181 164 169 212 212 250 346 243 265 2 46 102 126 139 144 143 139 120 118 100 88 83 79 76 72 73 73 71 64 62 60 58 52 44 37 36 35 31
189 269 88 205 187 140 190 190 187 112 96 72 212 266 165 96 82 106 133 146 159 156 146 147 150 136 133 115 97 91 91 88 78 73 72 64 57 51 45 37 29 20 14 12
198 292 212 177 76 29 123 154 70 2 212 249 271 256 222 198 173 169 177 173 171 161 168 180 169 156 144 133 124 116 103 91 86 81 65 55 45 34 26 19 16 8 360 357
151 149 240 136 190 180 144 216 206 166 161 194 233 258 247 173 182 187 185 188 183 190 195 190 183 170 160 159 159 147 129 116 106 82 61 47 32 21 12 6 1 358 353 349
191 152 195 213 315 359 180 201 176 195 244 240 192 251 281 163 168 163 188 193 203 205 193 180 177 172 172 169 163 166 157 129 77 56 41 28 14 6 1 358 352 347 340 338
176 190 352 330 339 36 205 191 141 75 64 221 217 249 292 135 152 199 188 203 208 208 183 180 173 179 179 175 171 168 164 150 108 52 355 342 347 351 351 347 342 338 336 333
149 172 183 240 197 151 194 182 153 167 178 216 236 296 232 218 220 222 231 227 227 211 179 175 177 182 185 187 185 188 189 189 177 335 335 335 336 338 337 333 331 330 329 328
166 200 191 208 150 183 216 239 184 203 218 220 267 247 262 249 208 227 225 229 217 180 180 188 182 188 192 195 205 210 213 216 233 271 297 311 318 320 320 321 321 321 320 319
34 249 84 296 197 196 242 253 226 246 260 260 261 271 273 298 181 191 223 234 217 210 205 196 201 199 203 211 218 219 225 232 242 268 290 304 309 311 314 316 318 317 316 315
167 139 114 264 2 51 308 233 233 242 218 218 232 245 219 244 229 218 211 174 202 206 209 215 214 219 222 225 230 228 221 213 227 255 280 297 303 306 310 312 312 313 313 313
140 117 109 207 34 278 262 240 264 235 247 196 229 218 210 232 219 185 195 203 231 228 224 220 224 228 232 233 220 196 191 203 230 269 291 298 302 306 309 309 310 311 312 308
184 138 167 178 201 303 286 230 179 186 264 192 187 236 236 196 72 288 223 200 209 207 233 242 249 242 228 193 183 188 199 231 266 293 306 303 305 308 309 309 311 310 306 304
186 212 184 121 175 211 239 203 135 116 280 226 158 208 179 138 169 244 205 211 239 252 257 247 237 209 180 175 182 194 222 258 284 289 292 303 310 311 310 311 311 311 306 299
102 135 212 219 230 283 239 220 133 118 246 200 179 207 167 188 211 208 195 233 246 250 255 238 201 188 182 182 195 212 244 268 269 284 300 309 313 312 312 312 313 313 309 300
163 163 199 135 182 258 177 82 177 203 192 179 199 201 195 218 224 225 230 235 244 242 227 197 187 181 182 194 204 204 237 257 285 300 308 313 314 313 313 313 315 315 311 301
256 193 182 183 205 227 184 194 216 159 179 203 199 212 206 219 227 228 236 235 234 236 213 196 188 181 188 206 231 236 257 281 294 303 310 313 314 317 318 313 314 310 305 292
258 173 209 107 223 215 197 236 231 199 210 214 210 217 198 221 232 238 234 240 228 217 196 190 179 182 191 212 232 267 282 287 297 306 315 319 320 317 318 316 314 299 293 291
201 147 171 267 280 216 256 239 235 238 224 236 236 226 227 213 235 227 233 234 234 208 195 191 191 195 201 213 244 279 283 286 296 307 319 322 319 318 317 314 306 298 292 293
188 215 178 228 245 225 233 237 226 225 231 224 228 244 233 212 227 211 229 237 221 193 187 191 197 203 208 231 265 276 273 283 295 306 321 321 319 319 316 309 308 315 298 303